#datetime,building,power
2023-02-26T00:00:00,mcc,51.36
2023-02-26T00:01:00,mcc,68.69
2023-02-26T00:02:00,mcc,67.70
2023-02-26T00:03:00,mcc,50.29
2023-02-26T00:04:00,mcc,54.34
2023-02-26T00:05:00,mcc,50.41
2023-02-26T00:06:00,mcc,50.24
2023-02-26T00:07:00,mcc,52.15
2023-02-26T00:08:00,mcc,51.02
2023-02-26T00:09:00,mcc,51.70
2023-02-26T00:10:00,mcc,53.24
2023-02-26T00:11:00,mcc,52.92
2023-02-26T00:12:00,mcc,53.02
2023-02-26T00:13:00,mcc,54.40
2023-02-26T00:14:00,mcc,50.12
2023-02-26T00:15:00,mcc,61.70
2023-02-26T00:16:00,mcc,46.91
2023-02-26T00:17:00,mcc,47.92
2023-02-26T00:18:00,mcc,47.84
2023-02-26T00:19:00,mcc,63.19
2023-02-26T00:20:00,mcc,49.26
2023-02-26T00:21:00,mcc,47.20
2023-02-26T00:22:00,mcc,44.94
2023-02-26T00:23:00,mcc,44.93
2023-02-26T00:24:00,mcc,46.56
2023-02-26T00:25:00,mcc,47.06
2023-02-26T00:26:00,mcc,45.68
2023-02-26T00:27:00,mcc,46.47
2023-02-26T00:28:00,mcc,42.63
2023-02-26T00:29:00,mcc,47.10
2023-02-26T00:30:00,mcc,43.25
2023-02-26T00:31:00,mcc,46.82
2023-02-26T00:32:00,mcc,44.62
2023-02-26T00:33:00,mcc,43.60
2023-02-26T00:34:00,mcc,44.20
2023-02-26T00:35:00,mcc,45.36
2023-02-26T00:36:00,mcc,44.12
2023-02-26T00:37:00,mcc,45.13
2023-02-26T00:38:00,mcc,48.60
2023-02-26T00:39:00,mcc,47.21
2023-02-26T00:40:00,mcc,48.43
2023-02-26T00:41:00,mcc,47.45
2023-02-26T00:42:00,mcc,44.76
2023-02-26T00:43:00,mcc,44.19
2023-02-26T00:44:00,mcc,45.90
2023-02-26T00:45:00,mcc,46.15
2023-02-26T00:46:00,mcc,47.85
2023-02-26T00:47:00,mcc,50.61
2023-02-26T00:48:00,mcc,54.58
2023-02-26T00:49:00,mcc,46.26
2023-02-26T00:50:00,mcc,45.61
2023-02-26T00:51:00,mcc,43.29
2023-02-26T00:52:00,mcc,42.55
2023-02-26T00:53:00,mcc,45.14
2023-02-26T00:54:00,mcc,45.14
2023-02-26T00:55:00,mcc,46.88
2023-02-26T00:56:00,mcc,43.16
2023-02-26T00:57:00,mcc,42.76
2023-02-26T00:58:00,mcc,44.79
2023-02-26T00:59:00,mcc,43.56
2023-02-26T01:00:00,mcc,45.48
2023-02-26T01:01:00,mcc,41.21
2023-02-26T01:02:00,mcc,39.72
2023-02-26T01:03:00,mcc,38.76
2023-02-26T01:04:00,mcc,40.00
2023-02-26T01:05:00,mcc,39.55
2023-02-26T01:06:00,mcc,43.30
2023-02-26T01:07:00,mcc,40.52
2023-02-26T01:08:00,mcc,42.18
2023-02-26T01:09:00,mcc,42.49
2023-02-26T01:10:00,mcc,39.57
2023-02-26T01:11:00,mcc,37.08
2023-02-26T01:12:00,mcc,38.83
2023-02-26T01:13:00,mcc,37.09
2023-02-26T01:14:00,mcc,38.23
2023-02-26T01:15:00,mcc,41.16
2023-02-26T01:16:00,mcc,39.27
2023-02-26T01:17:00,mcc,37.60
2023-02-26T01:18:00,mcc,37.60
2023-02-26T01:19:00,mcc,35.93
2023-02-26T01:20:00,mcc,35.92
2023-02-26T01:21:00,mcc,36.51
2023-02-26T01:22:00,mcc,36.34
2023-02-26T01:23:00,mcc,37.99
2023-02-26T01:24:00,mcc,34.00
2023-02-26T01:25:00,mcc,43.00
2023-02-26T01:26:00,mcc,37.24
2023-02-26T01:27:00,mcc,34.99
2023-02-26T01:28:00,mcc,39.12
2023-02-26T01:29:00,mcc,41.28
2023-02-26T01:30:00,mcc,37.68
2023-02-26T01:31:00,mcc,36.00
2023-02-26T01:32:00,mcc,35.24
2023-02-26T01:33:00,mcc,38.40
2023-02-26T01:34:00,mcc,37.96
2023-02-26T01:35:00,mcc,37.37
2023-02-26T01:36:00,mcc,38.54
2023-02-26T01:37:00,mcc,39.42
2023-02-26T01:38:00,mcc,37.53
2023-02-26T01:39:00,mcc,37.11
2023-02-26T01:40:00,mcc,35.73
2023-02-26T01:41:00,mcc,35.99
2023-02-26T01:42:00,mcc,36.47
2023-02-26T01:43:00,mcc,38.30
2023-02-26T01:44:00,mcc,44.26
2023-02-26T01:45:00,mcc,34.65
2023-02-26T01:46:00,mcc,38.13
2023-02-26T01:47:00,mcc,37.57
2023-02-26T01:48:00,mcc,37.99
2023-02-26T01:49:00,mcc,40.56
2023-02-26T01:50:00,mcc,38.30
2023-02-26T01:51:00,mcc,36.81
2023-02-26T01:52:00,mcc,34.44
2023-02-26T01:53:00,mcc,34.30
2023-02-26T01:54:00,mcc,37.71
2023-02-26T01:55:00,mcc,35.77
2023-02-26T01:56:00,mcc,36.39
2023-02-26T01:57:00,mcc,39.35
2023-02-26T01:58:00,mcc,35.92
2023-02-26T01:59:00,mcc,34.13
2023-02-26T02:00:00,mcc,36.41
2023-02-26T02:01:00,mcc,34.24
2023-02-26T02:02:00,mcc,42.10
2023-02-26T02:03:00,mcc,36.61
2023-02-26T02:04:00,mcc,37.02
2023-02-26T02:05:00,mcc,36.41
2023-02-26T02:06:00,mcc,36.51
2023-02-26T02:07:00,mcc,37.32
2023-02-26T02:08:00,mcc,38.35
2023-02-26T02:09:00,mcc,34.75
2023-02-26T02:10:00,mcc,34.64
2023-02-26T02:11:00,mcc,37.79
2023-02-26T02:12:00,mcc,35.03
2023-02-26T02:13:00,mcc,36.81
2023-02-26T02:14:00,mcc,37.17
2023-02-26T02:15:00,mcc,35.10
2023-02-26T02:16:00,mcc,34.09
2023-02-26T02:17:00,mcc,39.09
2023-02-26T02:18:00,mcc,38.12
2023-02-26T02:19:00,mcc,36.59
2023-02-26T02:20:00,mcc,39.36
2023-02-26T02:21:00,mcc,44.74
2023-02-26T02:22:00,mcc,38.31
2023-02-26T02:23:00,mcc,38.50
2023-02-26T02:24:00,mcc,37.23
2023-02-26T02:25:00,mcc,36.26
2023-02-26T02:26:00,mcc,36.69
2023-02-26T02:27:00,mcc,46.62
2023-02-26T02:28:00,mcc,48.47
2023-02-26T02:29:00,mcc,46.62
2023-02-26T02:30:00,mcc,36.24
2023-02-26T02:31:00,mcc,36.76
2023-02-26T02:32:00,mcc,33.20
2023-02-26T02:33:00,mcc,34.65
2023-02-26T02:34:00,mcc,38.33
2023-02-26T02:35:00,mcc,36.21
2023-02-26T02:36:00,mcc,36.36
2023-02-26T02:37:00,mcc,37.11
2023-02-26T02:38:00,mcc,35.67
2023-02-26T02:39:00,mcc,42.83
2023-02-26T02:40:00,mcc,34.95
2023-02-26T02:41:00,mcc,33.52
2023-02-26T02:42:00,mcc,37.90
2023-02-26T02:43:00,mcc,37.73
2023-02-26T02:44:00,mcc,35.45
2023-02-26T02:45:00,mcc,39.82
2023-02-26T02:46:00,mcc,36.99
2023-02-26T02:47:00,mcc,35.95
2023-02-26T02:48:00,mcc,35.49
2023-02-26T02:49:00,mcc,34.09
2023-02-26T02:50:00,mcc,41.53
2023-02-26T02:51:00,mcc,44.47
2023-02-26T02:52:00,mcc,41.40
2023-02-26T02:53:00,mcc,42.43
2023-02-26T02:54:00,mcc,36.45
2023-02-26T02:55:00,mcc,34.88
2023-02-26T02:56:00,mcc,35.95
2023-02-26T02:57:00,mcc,35.51
2023-02-26T02:58:00,mcc,45.92
2023-02-26T02:59:00,mcc,36.17
2023-02-26T03:00:00,mcc,38.22
2023-02-26T03:01:00,mcc,35.42
2023-02-26T03:02:00,mcc,36.25
2023-02-26T03:03:00,mcc,34.89
2023-02-26T03:04:00,mcc,35.47
2023-02-26T03:05:00,mcc,38.39
2023-02-26T03:06:00,mcc,35.19
2023-02-26T03:07:00,mcc,32.49
2023-02-26T03:08:00,mcc,35.47
2023-02-26T03:09:00,mcc,32.64
2023-02-26T03:10:00,mcc,32.44
2023-02-26T03:11:00,mcc,36.44
2023-02-26T03:12:00,mcc,33.74
2023-02-26T03:13:00,mcc,35.02
2023-02-26T03:14:00,mcc,33.17
2023-02-26T03:15:00,mcc,32.42
2023-02-26T03:16:00,mcc,40.34
2023-02-26T03:17:00,mcc,32.08
2023-02-26T03:18:00,mcc,32.90
2023-02-26T03:19:00,mcc,34.79
2023-02-26T03:20:00,mcc,33.25
2023-02-26T03:21:00,mcc,32.34
2023-02-26T03:22:00,mcc,32.95
2023-02-26T03:23:00,mcc,35.43
2023-02-26T03:24:00,mcc,34.57
2023-02-26T03:25:00,mcc,35.16
2023-02-26T03:26:00,mcc,34.93
2023-02-26T03:27:00,mcc,34.39
2023-02-26T03:28:00,mcc,35.69
2023-02-26T03:29:00,mcc,33.15
2023-02-26T03:30:00,mcc,35.52
2023-02-26T03:31:00,mcc,42.57
2023-02-26T03:32:00,mcc,40.07
2023-02-26T03:33:00,mcc,42.21
2023-02-26T03:34:00,mcc,47.02
2023-02-26T03:35:00,mcc,44.82
2023-02-26T03:36:00,mcc,44.73
2023-02-26T03:37:00,mcc,44.15
2023-02-26T03:38:00,mcc,43.51
2023-02-26T03:39:00,mcc,37.48
2023-02-26T03:40:00,mcc,38.05
2023-02-26T03:41:00,mcc,37.58
2023-02-26T03:42:00,mcc,36.15
2023-02-26T03:43:00,mcc,38.03
2023-02-26T03:44:00,mcc,36.17
2023-02-26T03:45:00,mcc,35.77
2023-02-26T03:46:00,mcc,36.04
2023-02-26T03:47:00,mcc,36.77
2023-02-26T03:48:00,mcc,38.45
2023-02-26T03:49:00,mcc,34.96
2023-02-26T03:50:00,mcc,34.85
2023-02-26T03:51:00,mcc,37.06
2023-02-26T03:52:00,mcc,37.08
2023-02-26T03:53:00,mcc,36.66
2023-02-26T03:54:00,mcc,38.59
2023-02-26T03:55:00,mcc,44.47
2023-02-26T03:56:00,mcc,35.57
2023-02-26T03:57:00,mcc,36.59
2023-02-26T03:58:00,mcc,36.94
2023-02-26T03:59:00,mcc,37.23
2023-02-26T04:00:00,mcc,39.68
2023-02-26T04:01:00,mcc,36.33
2023-02-26T04:02:00,mcc,36.02
2023-02-26T04:03:00,mcc,39.93
2023-02-26T04:04:00,mcc,39.40
2023-02-26T04:05:00,mcc,38.90
2023-02-26T04:06:00,mcc,39.27
2023-02-26T04:07:00,mcc,40.31
2023-02-26T04:08:00,mcc,39.68
2023-02-26T04:09:00,mcc,38.35
2023-02-26T04:10:00,mcc,37.24
2023-02-26T04:11:00,mcc,36.69
2023-02-26T04:12:00,mcc,33.59
2023-02-26T04:13:00,mcc,33.45
2023-02-26T04:14:00,mcc,36.23
2023-02-26T04:15:00,mcc,42.21
2023-02-26T04:16:00,mcc,34.56
2023-02-26T04:17:00,mcc,37.82
2023-02-26T04:18:00,mcc,36.12
2023-02-26T04:19:00,mcc,35.48
2023-02-26T04:20:00,mcc,38.35
2023-02-26T04:21:00,mcc,35.17
2023-02-26T04:22:00,mcc,36.73
2023-02-26T04:23:00,mcc,35.30
2023-02-26T04:24:00,mcc,35.79
2023-02-26T04:25:00,mcc,38.38
2023-02-26T04:26:00,mcc,34.47
2023-02-26T04:27:00,mcc,38.39
2023-02-26T04:28:00,mcc,38.39
2023-02-26T04:29:00,mcc,38.54
2023-02-26T04:30:00,mcc,38.61
2023-02-26T04:31:00,mcc,37.54
2023-02-26T04:32:00,mcc,36.98
2023-02-26T04:33:00,mcc,36.20
2023-02-26T04:34:00,mcc,46.24
2023-02-26T04:35:00,mcc,37.41
2023-02-26T04:36:00,mcc,37.22
2023-02-26T04:37:00,mcc,39.24
2023-02-26T04:38:00,mcc,39.60
2023-02-26T04:39:00,mcc,39.91
2023-02-26T04:40:00,mcc,38.51
2023-02-26T04:41:00,mcc,38.31
2023-02-26T04:42:00,mcc,38.78
2023-02-26T04:43:00,mcc,39.36
2023-02-26T04:44:00,mcc,36.61
2023-02-26T04:45:00,mcc,36.30
2023-02-26T04:46:00,mcc,35.12
2023-02-26T04:47:00,mcc,34.22
2023-02-26T04:48:00,mcc,37.70
2023-02-26T04:49:00,mcc,35.07
2023-02-26T04:50:00,mcc,35.16
2023-02-26T04:51:00,mcc,36.89
2023-02-26T04:52:00,mcc,36.38
2023-02-26T04:53:00,mcc,35.16
2023-02-26T04:54:00,mcc,37.54
2023-02-26T04:55:00,mcc,36.36
2023-02-26T04:56:00,mcc,36.42
2023-02-26T04:57:00,mcc,36.48
2023-02-26T04:58:00,mcc,36.69
2023-02-26T04:59:00,mcc,34.97
2023-02-26T05:00:00,mcc,36.50
2023-02-26T05:01:00,mcc,36.60
2023-02-26T05:02:00,mcc,37.18
2023-02-26T05:03:00,mcc,39.61
2023-02-26T05:04:00,mcc,36.27
2023-02-26T05:05:00,mcc,37.48
2023-02-26T05:06:00,mcc,38.89
2023-02-26T05:07:00,mcc,35.97
2023-02-26T05:08:00,mcc,34.36
2023-02-26T05:09:00,mcc,34.34
2023-02-26T05:10:00,mcc,36.15
2023-02-26T05:11:00,mcc,38.63
2023-02-26T05:12:00,mcc,35.83
2023-02-26T05:13:00,mcc,37.29
2023-02-26T05:14:00,mcc,39.46
2023-02-26T05:15:00,mcc,37.97
2023-02-26T05:16:00,mcc,36.50
2023-02-26T05:17:00,mcc,38.76
2023-02-26T05:18:00,mcc,34.33
2023-02-26T05:19:00,mcc,32.96
2023-02-26T05:20:00,mcc,36.22
2023-02-26T05:21:00,mcc,34.32
2023-02-26T05:22:00,mcc,34.17
2023-02-26T05:23:00,mcc,32.99
2023-02-26T05:24:00,mcc,34.26
2023-02-26T05:25:00,mcc,33.02
2023-02-26T05:26:00,mcc,34.03
2023-02-26T05:27:00,mcc,32.98
2023-02-26T05:28:00,mcc,35.59
2023-02-26T05:29:00,mcc,36.80
2023-02-26T05:30:00,mcc,35.43
2023-02-26T05:31:00,mcc,35.43
2023-02-26T05:32:00,mcc,30.96
2023-02-26T05:33:00,mcc,31.06
2023-02-26T05:34:00,mcc,31.21
2023-02-26T05:35:00,mcc,31.90
2023-02-26T05:36:00,mcc,33.12
2023-02-26T05:37:00,mcc,33.96
2023-02-26T05:38:00,mcc,33.54
2023-02-26T05:39:00,mcc,32.79
2023-02-26T05:40:00,mcc,33.70
2023-02-26T05:41:00,mcc,33.20
2023-02-26T05:42:00,mcc,33.78
2023-02-26T05:43:00,mcc,37.16
2023-02-26T05:44:00,mcc,43.53
2023-02-26T05:45:00,mcc,35.16
2023-02-26T05:46:00,mcc,37.61
2023-02-26T05:47:00,mcc,35.81
2023-02-26T05:48:00,mcc,37.30
2023-02-26T05:49:00,mcc,40.15
2023-02-26T05:50:00,mcc,35.59
2023-02-26T05:51:00,mcc,34.66
2023-02-26T05:52:00,mcc,35.81
2023-02-26T05:53:00,mcc,30.80
2023-02-26T05:54:00,mcc,32.30
2023-02-26T05:55:00,mcc,33.60
2023-02-26T05:56:00,mcc,36.90
2023-02-26T05:57:00,mcc,35.57
2023-02-26T05:58:00,mcc,35.88
2023-02-26T05:59:00,mcc,35.03
2023-02-26T06:00:00,mcc,37.51
2023-02-26T06:01:00,mcc,33.30
2023-02-26T06:02:00,mcc,41.49
2023-02-26T06:03:00,mcc,39.94
2023-02-26T06:04:00,mcc,39.70
2023-02-26T06:05:00,mcc,40.68
2023-02-26T06:06:00,mcc,31.67
2023-02-26T06:07:00,mcc,33.66
2023-02-26T06:08:00,mcc,40.94
2023-02-26T06:09:00,mcc,32.13
2023-02-26T06:10:00,mcc,32.97
2023-02-26T06:11:00,mcc,32.76
2023-02-26T06:12:00,mcc,34.03
2023-02-26T06:13:00,mcc,33.53
2023-02-26T06:14:00,mcc,35.38
2023-02-26T06:15:00,mcc,36.89
2023-02-26T06:16:00,mcc,34.61
2023-02-26T06:17:00,mcc,35.64
2023-02-26T06:18:00,mcc,36.19
2023-02-26T06:19:00,mcc,33.82
2023-02-26T06:20:00,mcc,34.10
2023-02-26T06:21:00,mcc,38.52
2023-02-26T06:22:00,mcc,37.11
2023-02-26T06:23:00,mcc,37.66
2023-02-26T06:24:00,mcc,38.84
2023-02-26T06:25:00,mcc,37.08
2023-02-26T06:26:00,mcc,36.37
2023-02-26T06:27:00,mcc,40.64
2023-02-26T06:28:00,mcc,32.69
2023-02-26T06:29:00,mcc,40.63
2023-02-26T06:30:00,mcc,40.63
2023-02-26T06:31:00,mcc,42.03
2023-02-26T06:32:00,mcc,35.23
2023-02-26T06:33:00,mcc,33.43
2023-02-26T06:34:00,mcc,31.63
2023-02-26T06:35:00,mcc,31.42
2023-02-26T06:36:00,mcc,31.44
2023-02-26T06:37:00,mcc,31.05
2023-02-26T06:38:00,mcc,34.11
2023-02-26T06:39:00,mcc,34.32
2023-02-26T06:40:00,mcc,34.37
2023-02-26T06:41:00,mcc,35.64
2023-02-26T06:42:00,mcc,34.34
2023-02-26T06:43:00,mcc,34.83
2023-02-26T06:44:00,mcc,35.97
2023-02-26T06:45:00,mcc,35.06
2023-02-26T06:46:00,mcc,35.21
2023-02-26T06:47:00,mcc,36.43
2023-02-26T06:48:00,mcc,34.01
2023-02-26T06:49:00,mcc,33.75
2023-02-26T06:50:00,mcc,36.88
2023-02-26T06:51:00,mcc,36.95
2023-02-26T06:52:00,mcc,40.52
2023-02-26T06:53:00,mcc,37.83
2023-02-26T06:54:00,mcc,36.86
2023-02-26T06:55:00,mcc,35.33
2023-02-26T06:56:00,mcc,35.78
2023-02-26T06:57:00,mcc,35.61
2023-02-26T06:58:00,mcc,32.73
2023-02-26T06:59:00,mcc,33.99
2023-02-26T07:00:00,mcc,34.26
2023-02-26T07:01:00,mcc,34.82
2023-02-26T07:02:00,mcc,33.86
2023-02-26T07:03:00,mcc,32.07
2023-02-26T07:04:00,mcc,33.21
2023-02-26T07:05:00,mcc,32.32
2023-02-26T07:06:00,mcc,32.34
2023-02-26T07:07:00,mcc,35.08
2023-02-26T07:08:00,mcc,34.09
2023-02-26T07:09:00,mcc,33.35
2023-02-26T07:10:00,mcc,34.54
2023-02-26T07:11:00,mcc,32.61
2023-02-26T07:12:00,mcc,33.36
2023-02-26T07:13:00,mcc,34.02
2023-02-26T07:14:00,mcc,32.95
2023-02-26T07:15:00,mcc,34.62
2023-02-26T07:16:00,mcc,34.34
2023-02-26T07:17:00,mcc,33.34
2023-02-26T07:18:00,mcc,33.10
2023-02-26T07:19:00,mcc,33.77
2023-02-26T07:20:00,mcc,32.69
2023-02-26T07:21:00,mcc,33.01
2023-02-26T07:22:00,mcc,32.85
2023-02-26T07:23:00,mcc,42.06
2023-02-26T07:24:00,mcc,35.29
2023-02-26T07:25:00,mcc,33.97
2023-02-26T07:26:00,mcc,34.43
2023-02-26T07:27:00,mcc,33.92
2023-02-26T07:28:00,mcc,34.95
2023-02-26T07:29:00,mcc,34.70
2023-02-26T07:30:00,mcc,34.77
2023-02-26T07:31:00,mcc,32.91
2023-02-26T07:32:00,mcc,32.10
2023-02-26T07:33:00,mcc,33.38
2023-02-26T07:34:00,mcc,31.88
2023-02-26T07:35:00,mcc,32.46
2023-02-26T07:36:00,mcc,34.52
2023-02-26T07:37:00,mcc,34.54
2023-02-26T07:38:00,mcc,33.30
2023-02-26T07:39:00,mcc,35.54
2023-02-26T07:40:00,mcc,34.11
2023-02-26T07:41:00,mcc,32.90
2023-02-26T07:42:00,mcc,41.65
2023-02-26T07:43:00,mcc,33.47
2023-02-26T07:44:00,mcc,32.72
2023-02-26T07:45:00,mcc,32.89
2023-02-26T07:46:00,mcc,32.57
2023-02-26T07:47:00,mcc,31.74
2023-02-26T07:48:00,mcc,31.90
2023-02-26T07:49:00,mcc,32.42
2023-02-26T07:50:00,mcc,37.15
2023-02-26T07:51:00,mcc,36.82
2023-02-26T07:52:00,mcc,36.95
2023-02-26T07:53:00,mcc,36.49
2023-02-26T07:54:00,mcc,34.13
2023-02-26T07:55:00,mcc,34.01
2023-02-26T07:56:00,mcc,32.66
2023-02-26T07:57:00,mcc,33.77
2023-02-26T07:58:00,mcc,32.39
2023-02-26T07:59:00,mcc,33.38
2023-02-26T08:00:00,mcc,33.87
2023-02-26T08:01:00,mcc,41.06
2023-02-26T08:02:00,mcc,34.93
2023-02-26T08:03:00,mcc,33.90
2023-02-26T08:04:00,mcc,36.24
2023-02-26T08:05:00,mcc,36.20
2023-02-26T08:06:00,mcc,33.44
2023-02-26T08:07:00,mcc,31.69
2023-02-26T08:08:00,mcc,36.39
2023-02-26T08:09:00,mcc,33.14
2023-02-26T08:10:00,mcc,32.59
2023-02-26T08:11:00,mcc,35.68
2023-02-26T08:12:00,mcc,34.81
2023-02-26T08:13:00,mcc,34.98
2023-02-26T08:14:00,mcc,33.39
2023-02-26T08:15:00,mcc,34.10
2023-02-26T08:16:00,mcc,34.18
2023-02-26T08:17:00,mcc,35.85
2023-02-26T08:18:00,mcc,36.17
2023-02-26T08:19:00,mcc,35.43
2023-02-26T08:20:00,mcc,43.00
2023-02-26T08:21:00,mcc,35.90
2023-02-26T08:22:00,mcc,36.98
2023-02-26T08:23:00,mcc,35.70
2023-02-26T08:24:00,mcc,35.12
2023-02-26T08:25:00,mcc,34.34
2023-02-26T08:26:00,mcc,33.92
2023-02-26T08:27:00,mcc,33.30
2023-02-26T08:28:00,mcc,33.34
2023-02-26T08:29:00,mcc,31.04
2023-02-26T08:30:00,mcc,31.08
2023-02-26T08:31:00,mcc,30.16
2023-02-26T08:32:00,mcc,30.26
2023-02-26T08:33:00,mcc,30.68
2023-02-26T08:34:00,mcc,34.46
2023-02-26T08:35:00,mcc,32.37
2023-02-26T08:36:00,mcc,31.86
2023-02-26T08:37:00,mcc,33.95
2023-02-26T08:38:00,mcc,31.44
2023-02-26T08:39:00,mcc,33.25
2023-02-26T08:40:00,mcc,44.29
2023-02-26T08:41:00,mcc,31.90
2023-02-26T08:42:00,mcc,32.87
2023-02-26T08:43:00,mcc,34.14
2023-02-26T08:44:00,mcc,30.77
2023-02-26T08:45:00,mcc,31.32
2023-02-26T08:46:00,mcc,34.29
2023-02-26T08:47:00,mcc,33.04
2023-02-26T08:48:00,mcc,32.79
2023-02-26T08:49:00,mcc,33.75
2023-02-26T08:50:00,mcc,31.72
2023-02-26T08:51:00,mcc,32.67
2023-02-26T08:52:00,mcc,32.65
2023-02-26T08:53:00,mcc,30.48
2023-02-26T08:54:00,mcc,31.86
2023-02-26T08:55:00,mcc,34.50
2023-02-26T08:56:00,mcc,33.28
2023-02-26T08:57:00,mcc,32.96
2023-02-26T08:58:00,mcc,35.62
2023-02-26T08:59:00,mcc,41.20
2023-02-26T09:00:00,mcc,31.77
2023-02-26T09:01:00,mcc,30.76
2023-02-26T09:02:00,mcc,32.06
2023-02-26T09:03:00,mcc,32.43
2023-02-26T09:04:00,mcc,32.49
2023-02-26T09:05:00,mcc,30.75
2023-02-26T09:06:00,mcc,34.84
2023-02-26T09:07:00,mcc,32.05
2023-02-26T09:08:00,mcc,31.69
2023-02-26T09:09:00,mcc,34.58
2023-02-26T09:10:00,mcc,33.03
2023-02-26T09:11:00,mcc,34.46
2023-02-26T09:12:00,mcc,36.95
2023-02-26T09:13:00,mcc,32.26
2023-02-26T09:14:00,mcc,32.56
2023-02-26T09:15:00,mcc,35.79
2023-02-26T09:16:00,mcc,33.52
2023-02-26T09:17:00,mcc,35.46
2023-02-26T09:18:00,mcc,36.40
2023-02-26T09:19:00,mcc,33.84
2023-02-26T09:20:00,mcc,33.65
2023-02-26T09:21:00,mcc,33.37
2023-02-26T09:22:00,mcc,31.63
2023-02-26T09:23:00,mcc,32.42
2023-02-26T09:24:00,mcc,34.69
2023-02-26T09:25:00,mcc,34.64
2023-02-26T09:26:00,mcc,32.54
2023-02-26T09:27:00,mcc,33.78
2023-02-26T09:28:00,mcc,37.56
2023-02-26T09:29:00,mcc,38.70
2023-02-26T09:30:00,mcc,43.27
2023-02-26T09:31:00,mcc,42.11
2023-02-26T09:32:00,mcc,44.49
2023-02-26T09:33:00,mcc,36.41
2023-02-26T09:34:00,mcc,36.92
2023-02-26T09:35:00,mcc,34.74
2023-02-26T09:36:00,mcc,37.28
2023-02-26T09:37:00,mcc,44.96
2023-02-26T09:38:00,mcc,37.25
2023-02-26T09:39:00,mcc,36.42
2023-02-26T09:40:00,mcc,37.97
2023-02-26T09:41:00,mcc,40.59
2023-02-26T09:42:00,mcc,37.96
2023-02-26T09:43:00,mcc,36.70
2023-02-26T09:44:00,mcc,40.14
2023-02-26T09:45:00,mcc,39.15
2023-02-26T09:46:00,mcc,39.10
2023-02-26T09:47:00,mcc,41.59
2023-02-26T09:48:00,mcc,38.23
2023-02-26T09:49:00,mcc,39.87
2023-02-26T09:50:00,mcc,40.09
2023-02-26T09:51:00,mcc,38.99
2023-02-26T09:52:00,mcc,37.04
2023-02-26T09:53:00,mcc,39.31
2023-02-26T09:54:00,mcc,39.74
2023-02-26T09:55:00,mcc,38.27
2023-02-26T09:56:00,mcc,41.10
2023-02-26T09:57:00,mcc,37.02
2023-02-26T09:58:00,mcc,34.95
2023-02-26T09:59:00,mcc,37.65
2023-02-26T10:00:00,mcc,34.81
2023-02-26T10:01:00,mcc,36.43
2023-02-26T10:02:00,mcc,38.78
2023-02-26T10:03:00,mcc,38.60
2023-02-26T10:04:00,mcc,37.78
2023-02-26T10:05:00,mcc,38.12
2023-02-26T10:06:00,mcc,37.34
2023-02-26T10:07:00,mcc,37.26
2023-02-26T10:08:00,mcc,41.20
2023-02-26T10:09:00,mcc,40.40
2023-02-26T10:10:00,mcc,41.43
2023-02-26T10:11:00,mcc,39.45
2023-02-26T10:12:00,mcc,41.17
2023-02-26T10:13:00,mcc,41.78
2023-02-26T10:14:00,mcc,39.64
2023-02-26T10:15:00,mcc,39.37
2023-02-26T10:16:00,mcc,40.86
2023-02-26T10:17:00,mcc,36.79
2023-02-26T10:18:00,mcc,38.69
2023-02-26T10:19:00,mcc,40.87
2023-02-26T10:20:00,mcc,39.30
2023-02-26T10:21:00,mcc,39.98
2023-02-26T10:22:00,mcc,41.68
2023-02-26T10:23:00,mcc,41.11
2023-02-26T10:24:00,mcc,46.84
2023-02-26T10:25:00,mcc,48.63
2023-02-26T10:26:00,mcc,52.65
2023-02-26T10:27:00,mcc,43.65
2023-02-26T10:28:00,mcc,53.56
2023-02-26T10:29:00,mcc,46.79
2023-02-26T10:30:00,mcc,39.87
2023-02-26T10:31:00,mcc,40.72
2023-02-26T10:32:00,mcc,39.54
2023-02-26T10:33:00,mcc,39.16
2023-02-26T10:34:00,mcc,39.61
2023-02-26T10:35:00,mcc,39.03
2023-02-26T10:36:00,mcc,40.31
2023-02-26T10:37:00,mcc,41.65
2023-02-26T10:38:00,mcc,40.84
2023-02-26T10:39:00,mcc,43.51
2023-02-26T10:40:00,mcc,43.06
2023-02-26T10:41:00,mcc,41.58
2023-02-26T10:42:00,mcc,42.12
2023-02-26T10:43:00,mcc,40.83
2023-02-26T10:44:00,mcc,41.04
2023-02-26T10:45:00,mcc,41.47
2023-02-26T10:46:00,mcc,52.58
2023-02-26T10:47:00,mcc,53.74
2023-02-26T10:48:00,mcc,54.65
2023-02-26T10:49:00,mcc,53.66
2023-02-26T10:50:00,mcc,40.45
2023-02-26T10:51:00,mcc,41.20
2023-02-26T10:52:00,mcc,39.42
2023-02-26T10:53:00,mcc,48.03
2023-02-26T10:54:00,mcc,42.08
2023-02-26T10:55:00,mcc,38.07
2023-02-26T10:56:00,mcc,36.36
2023-02-26T10:57:00,mcc,39.21
2023-02-26T10:58:00,mcc,36.83
2023-02-26T10:59:00,mcc,38.02
2023-02-26T11:00:00,mcc,42.49
2023-02-26T11:01:00,mcc,38.66
2023-02-26T11:02:00,mcc,38.81
2023-02-26T11:03:00,mcc,37.99
2023-02-26T11:04:00,mcc,37.60
2023-02-26T11:05:00,mcc,36.38
2023-02-26T11:06:00,mcc,38.62
2023-02-26T11:07:00,mcc,39.37
2023-02-26T11:08:00,mcc,40.30
2023-02-26T11:09:00,mcc,38.38
2023-02-26T11:10:00,mcc,38.09
2023-02-26T11:11:00,mcc,48.17
2023-02-26T11:12:00,mcc,48.01
2023-02-26T11:13:00,mcc,39.78
2023-02-26T11:14:00,mcc,41.38
2023-02-26T11:15:00,mcc,43.02
2023-02-26T11:16:00,mcc,42.59
2023-02-26T11:17:00,mcc,40.80
2023-02-26T11:18:00,mcc,40.00
2023-02-26T11:19:00,mcc,39.60
2023-02-26T11:20:00,mcc,44.31
2023-02-26T11:21:00,mcc,41.34
2023-02-26T11:22:00,mcc,39.27
2023-02-26T11:23:00,mcc,41.50
2023-02-26T11:24:00,mcc,39.51
2023-02-26T11:25:00,mcc,40.05
2023-02-26T11:26:00,mcc,41.80
2023-02-26T11:27:00,mcc,39.49
2023-02-26T11:28:00,mcc,38.52
2023-02-26T11:29:00,mcc,39.47
2023-02-26T11:30:00,mcc,45.77
2023-02-26T11:31:00,mcc,36.76
2023-02-26T11:32:00,mcc,38.65
2023-02-26T11:33:00,mcc,40.76
2023-02-26T11:34:00,mcc,40.52
2023-02-26T11:35:00,mcc,42.01
2023-02-26T11:36:00,mcc,40.99
2023-02-26T11:37:00,mcc,40.75
2023-02-26T11:38:00,mcc,43.26
2023-02-26T11:39:00,mcc,42.83
2023-02-26T11:40:00,mcc,41.61
2023-02-26T11:41:00,mcc,42.63
2023-02-26T11:42:00,mcc,43.57
2023-02-26T11:43:00,mcc,44.86
2023-02-26T11:44:00,mcc,44.37
2023-02-26T11:45:00,mcc,47.07
2023-02-26T11:46:00,mcc,54.40
2023-02-26T11:47:00,mcc,44.39
2023-02-26T11:48:00,mcc,41.06
2023-02-26T11:49:00,mcc,43.76
2023-02-26T11:50:00,mcc,54.98
2023-02-26T11:51:00,mcc,46.67
2023-02-26T11:52:00,mcc,48.60
2023-02-26T11:53:00,mcc,42.73
2023-02-26T11:54:00,mcc,42.44
2023-02-26T11:55:00,mcc,42.63
2023-02-26T11:56:00,mcc,41.79
2023-02-26T11:57:00,mcc,42.53
2023-02-26T11:58:00,mcc,46.46
2023-02-26T11:59:00,mcc,44.78
2023-02-26T12:00:00,mcc,41.13
2023-02-26T12:01:00,mcc,41.74
2023-02-26T12:02:00,mcc,43.21
2023-02-26T12:03:00,mcc,45.82
2023-02-26T12:04:00,mcc,45.88
2023-02-26T12:05:00,mcc,46.42
2023-02-26T12:06:00,mcc,44.78
2023-02-26T12:07:00,mcc,42.55
2023-02-26T12:08:00,mcc,44.19
2023-02-26T12:09:00,mcc,46.22
2023-02-26T12:10:00,mcc,44.96
2023-02-26T12:11:00,mcc,46.70
2023-02-26T12:12:00,mcc,48.12
2023-02-26T12:13:00,mcc,46.89
2023-02-26T12:14:00,mcc,47.29
2023-02-26T12:15:00,mcc,44.32
2023-02-26T12:16:00,mcc,44.64
2023-02-26T12:17:00,mcc,43.47
2023-02-26T12:18:00,mcc,47.01
2023-02-26T12:19:00,mcc,44.95
2023-02-26T12:20:00,mcc,45.39
2023-02-26T12:21:00,mcc,53.19
2023-02-26T12:22:00,mcc,45.23
2023-02-26T12:23:00,mcc,48.07
2023-02-26T12:24:00,mcc,45.03
2023-02-26T12:25:00,mcc,45.50
2023-02-26T12:26:00,mcc,46.93
2023-02-26T12:27:00,mcc,44.86
2023-02-26T12:28:00,mcc,48.63
2023-02-26T12:29:00,mcc,54.34
2023-02-26T12:30:00,mcc,49.14
2023-02-26T12:31:00,mcc,56.81
2023-02-26T12:32:00,mcc,46.09
2023-02-26T12:33:00,mcc,45.60
2023-02-26T12:34:00,mcc,42.83
2023-02-26T12:35:00,mcc,55.22
2023-02-26T12:36:00,mcc,45.90
2023-02-26T12:37:00,mcc,48.72
2023-02-26T12:38:00,mcc,49.54
2023-02-26T12:39:00,mcc,49.78
2023-02-26T12:40:00,mcc,44.99
2023-02-26T12:41:00,mcc,48.00
2023-02-26T12:42:00,mcc,50.51
2023-02-26T12:43:00,mcc,47.92
2023-02-26T12:44:00,mcc,47.90
2023-02-26T12:45:00,mcc,45.63
2023-02-26T12:46:00,mcc,44.94
2023-02-26T12:47:00,mcc,43.29
2023-02-26T12:48:00,mcc,42.88
2023-02-26T12:49:00,mcc,52.83
2023-02-26T12:50:00,mcc,44.22
2023-02-26T12:51:00,mcc,45.20
2023-02-26T12:52:00,mcc,46.65
2023-02-26T12:53:00,mcc,44.50
2023-02-26T12:54:00,mcc,43.52
2023-02-26T12:55:00,mcc,44.69
2023-02-26T12:56:00,mcc,46.99
2023-02-26T12:57:00,mcc,48.59
2023-02-26T12:58:00,mcc,44.65
2023-02-26T12:59:00,mcc,47.11
2023-02-26T13:00:00,mcc,48.61
2023-02-26T13:01:00,mcc,50.37
2023-02-26T13:02:00,mcc,53.26
2023-02-26T13:03:00,mcc,51.08
2023-02-26T13:04:00,mcc,52.63
2023-02-26T13:05:00,mcc,52.09
2023-02-26T13:06:00,mcc,52.93
2023-02-26T13:07:00,mcc,58.42
2023-02-26T13:08:00,mcc,52.63
2023-02-26T13:09:00,mcc,53.52
2023-02-26T13:10:00,mcc,50.58
2023-02-26T13:11:00,mcc,53.09
2023-02-26T13:12:00,mcc,54.04
2023-02-26T13:13:00,mcc,52.43
2023-02-26T13:14:00,mcc,52.70
2023-02-26T13:15:00,mcc,52.14
2023-02-26T13:16:00,mcc,52.27
2023-02-26T13:17:00,mcc,54.32
2023-02-26T13:18:00,mcc,51.80